Regional Weather Roundup
Issued by NWS

Home | Current Version | Previous Version | Graphics & Text | Print | Product List | Glossary On
Versions: 1 2 3 4 5 6 7 8 9 10 11 12 13 14 15 16 17 18 19 20 21 22 23 24 25 26 27 28 29 30 31 32 33 34 35 36 37 38 39 40 41 42 43 44 45 46 47 48 49 50
000
ASUS43 KDMX 241207
RWRIA

WEATHER ROUNDUP FOR IOWA
NATIONAL WEATHER SERVICE DES MOINES IA
600 AM CST WED DEC 24 2014

NOTE: "FAIR" INDICATES FEW OR NO CLOUDS BELOW 12,000 FEET WITH NO
SIGNIFICANT WEATHER AND/OR OBSTRUCTIONS TO VISIBILITY.

* - THESE STATIONS ARE NOT NWS STATIONS...THUS NOT UNDER NWS
QUALITY CONTROL.  THEY ALSO DO NOT REPORT WEATHER SUCH
AS PRECIPITATION OR FOG.

IAZ001>003-012>014-020>022-031>034-043>046-241300-
   NORTHWEST IOWA

CITY           SKY/WX    TMP DP  RH WIND       PRES   REMARKS
CARROLL *      CLOUDY    34  32  93 N17G26    29.83S WCI  23
CHEROKEE *     CLOUDY    32  31  96 N8        29.85F WCI  25
DENISON *      CLOUDY    32  32 100 N15       29.83F WCI  22
LE MARS *      CLOUDY    32  30  93 NW13      29.89R WCI  22
ORANGE CITY *  CLOUDY    32  30  93 N10       29.86R FOG     WCI  24
SHELDON *      CLOUDY    32  32 100 NW14      29.84S WCI  22
SIOUX CITY     CLOUDY    32  29  88 NW14      29.90R WCI  22
6HR MIN TEMP:  32; 6HR MAX TEMP:  34; 6HR PCP: TRACE;

SPENCER        CLOUDY    32  29  88 N15       29.83F WCI  22
6HR MIN TEMP:  32; 6HR MAX TEMP:  34; 6HR PCP: TRACE;

STORM LAKE *   CLOUDY    32  30  93 N16G23    29.84F WCI  21
$$

IAZ055>058-069>071-079>083-090>094-241300-
   SOUTHWEST IOWA

CITY           SKY/WX    TMP DP  RH WIND       PRES   REMARKS
ATLANTIC *     CLOUDY    34  32  93 N15       29.84R WCI  24
AUDUBON *      PTCLDY    34  28  80 NW10G16   29.83S WCI  26
CLARINDA *     FLURRIES  34  32  93 NW13G21   29.85S WCI  25
COUNCIL BLFS * CLOUDY    32  32 100 NW14G26   29.85S FOG     WCI  22
CRESTON *      FLURRIES  34  34 100 N16G23    29.78S WCI  23
HARLAN  *      CLOUDY    34  34 100 NW18G29   29.88S WCI  23
LAMONI         CLOUDY    34  31  88 N17G24    29.76R WCI  23
6HR MIN TEMP:  33; 6HR MAX TEMP:  34; 6HR PCP:  0.03;

RED OAK *      CLOUDY    36  32  87 N17G24    29.85S WCI  25
SHENANDOAH *   CLOUDY    34  32  93 NW15G23   29.87R WCI  24
$$

IAZ047>049-059>061-072>074-084-241300-
   CENTRAL IOWA

CITY           SKY/WX    TMP DP  RH WIND       PRES   REMARKS
AMES           CLOUDY    34  31  88 N16       29.77S WCI  24
6HR MIN TEMP:  33; 6HR MAX TEMP:  34; 6HR PCP:  0.04;

ANKENY *       CLOUDY    34  32  93 NW13      29.77R WCI  25
CHARITON *     MIX PCPN  34  32  93 NW13      29.75R WCI  25
DES MOINES     FLURRIES  35  32  88 N9        29.78R WCI  28
6HR MIN TEMP:  34; 6HR MAX TEMP:  35; 6HR PCP:  0.09;

GRINNELL*      CLOUDY    34  32  93 NW13      29.73R WCI  25
KNOXVILLE *    CLOUDY    34  32  93 NW14      29.74R WCI  24
MARSHALLTOWN   CLOUDY    33  30  88 N17       29.73R WCI  22
6HR MIN TEMP:  32; 6HR MAX TEMP:  34; 6HR PCP:  0.01;

PELLA *        CLOUDY    33  33  99 NW12      29.76R WCI  25
PERRY *        CLOUDY    34  34 100 N16G22    29.80F WCI  23
$$

IAZ004>006-015-016-023>025-035-036-241300-
   NORTH CENTRAL IOWA

CITY           SKY/WX    TMP DP  RH WIND       PRES   REMARKS
ALGONA *       DRIZZLE   32  32 100 N15       29.81S WCI  22
CLARION *      CLOUDY    32  32 100 NW16G23   29.78S WCI  21
ESTHERVILLE    CLOUDY    31  30  96 N13       29.81F WCI  21
6HR MIN TEMP:  31; 6HR MAX TEMP:  32;

FORT DODGE *   CLOUDY    34  28  80 NW10G18   29.81S WCI  26
MASON CITY     CLOUDY    33  31  92 NW16      29.77F WCI  23
6HR MIN TEMP:  33; 6HR MAX TEMP:  34; 6HR PCP: TRACE;

FOREST CITY *  CLOUDY    34  32  93 NW13      29.78S WCI  25
IOWA FALLS *   CLOUDY    34  32  93 NW15      29.76S WCI  24
$$

IAZ007>011-017>019-026>030-037>042-050>054-066-241300-
   NORTHEAST IOWA

CITY           SKY/WX    TMP DP  RH WIND       PRES   REMARKS
CEDAR RAPIDS   CLOUDY    34  33  96 NW12      29.69R WCI  25
6HR MIN TEMP:  34; 6HR MAX TEMP:  34;

CHARLES CITY * CLOUDY    34  34 100 N16       29.73F WCI  23
CLINTON *      CLOUDY    36  32  87 NW7       29.69F WCI  30
DECORAH *      CLOUDY    34  32  93 NW13      29.69R WCI  25
DUBUQUE        CLOUDY    33  33 100 N8        29.66S FOG     WCI  26
6HR MIN TEMP:  33; 6HR MAX TEMP:  34;

MONTICELLO *   CLOUDY    36  36 100 N10       29.68S WCI  28
OELWEIN *      CLOUDY    34  32  93 N12       29.71R WCI  25
WATERLOO       LGT RAIN  33  32  96 NW15      29.72R WCI  23
6HR MIN TEMP:  32; 6HR MAX TEMP:  34; 6HR PCP: TRACE;

$$

IAZ064-065-067-068-078-241300-
   EAST CENTRAL IOWA

CITY           SKY/WX    TMP DP  RH WIND       PRES   REMARKS
DAVENPORT      CLOUDY    35  32  88 NW8       29.67F WCI  29
6HR MIN TEMP:  35; 6HR MAX TEMP:  37;

IOWA CITY      CLOUDY    36  34  92 N7        29.70F WCI  30
6HR MIN TEMP:  35; 6HR MAX TEMP:  36;

MT. PLEASANT * CLOUDY    34  34  99 NW7       29.70S WCI  28
MUSCATINE *    CLOUDY    37  34  87 N8        29.70R WCI  31
QUAD CITIES    CLOUDY    36  32  85 NW6       29.67F WCI  31
6HR MIN TEMP:  36; 6HR MAX TEMP:  38;

$$

IAZ062-063-075>077-085>089-095>099-241300-
   SOUTHEAST IOWA

CITY           SKY/WX    TMP DP  RH WIND       PRES   REMARKS
BURLINGTON     CLOUDY    36  34  92 NW6       29.69R FOG     WCI  31
6HR MIN TEMP:  36; 6HR MAX TEMP:  38;

FAIRFIELD *    CLOUDY    36  32  87 N10       29.71R WCI  28
FORT MADISON * CLOUDY    37  36  93 NW6       29.70S WCI  33
KEOKUK *       CLOUDY    36  34  93 VRB7      29.70R WCI  30
OSKALOOSA *    LGT SNOW  32  32  99 NW10      29.73R WCI  24
CENTERVILLE *  LGT RAIN  32  32 100 NW13      29.74R WCI  22
OTTUMWA        CLOUDY    34  33  96 NW14      29.72R WCI  25
6HR MIN TEMP:  34; 6HR MAX TEMP:  35;

WASHINGTON *   CLOUDY    36  36 100 N9        29.70R FOG     WCI  29
$$

ABBREVIATIONS USED IN REMARKS
   TC - TEMPERATURES IN CELSIUS
  WCI - WIND CHILL INDEX
   HX - HEAT INDEX
  VSB - VISIBILITY
$$




USA.gov is the U.S. government's official web portal to all federal, state and local government web resources and services.